Zeit;wasserstand;wasserstand_status;abfluss;abfluss_status
2019-08-02 00:00:00;482.0;1;;1
2019-08-03 00:00:00;481.0;1;;1
2019-08-04 00:00:00;480.0;1;;1
2019-08-05 00:00:00;478.0;1;;1
2019-08-06 00:00:00;475.0;1;;1
2019-08-07 00:00:00;473.0;1;;1
2019-08-08 00:00:00;474.0;1;;1
2019-08-09 00:00:00;476.0;1;;1
2019-08-10 00:00:00;475.0;1;;1
2019-08-11 00:00:00;473.0;1;;1
2019-08-12 00:00:00;471.0;1;;1
2019-08-13 00:00:00;473.0;1;;1
2019-08-14 00:00:00;470.0;1;;1
2019-08-15 00:00:00;473.0;1;;1
2019-08-16 00:00:00;473.0;1;;1
2019-08-17 00:00:00;471.0;1;;1
2019-08-18 00:00:00;473.0;1;;1
2019-08-19 00:00:00;472.0;1;;1
2019-08-20 00:00:00;471.0;1;;1
2019-08-21 00:00:00;470.0;1;;1
2019-08-22 00:00:00;470.0;1;;1
2019-08-23 00:00:00;469.0;1;;1
2019-08-24 00:00:00;469.0;1;;1
2019-08-25 00:00:00;469.0;1;;1
2019-08-26 00:00:00;469.0;1;;1
2019-08-27 00:00:00;468.0;1;;1
2019-08-28 00:00:00;468.0;1;;1
2019-08-29 00:00:00;469.0;1;;1
2019-08-30 00:00:00;469.0;1;;1
2019-08-31 00:00:00;469.0;1;;1
2019-09-01 00:00:00;468.0;1;;1
2019-09-02 00:00:00;468.0;1;;1
2019-09-03 00:00:00;469.0;1;;1
2019-09-04 00:00:00;469.0;1;;1
2019-09-05 00:00:00;470.0;1;;1
2019-09-06 00:00:00;470.0;1;;1
2019-09-07 00:00:00;469.0;1;;1
2019-09-08 00:00:00;471.0;1;;1
2019-09-09 00:00:00;476.0;1;;1
2019-09-10 00:00:00;474.0;1;;1
2019-09-11 00:00:00;472.0;1;;1
2019-09-12 00:00:00;471.0;1;;1
2019-09-13 00:00:00;470.0;1;;1
2019-09-14 00:00:00;470.0;1;;1
2019-09-15 00:00:00;470.0;1;;1
2019-09-16 00:00:00;470.0;1;;1
2019-09-17 00:00:00;471.0;1;;1
2019-09-18 00:00:00;471.0;1;;1
2019-09-19 00:00:00;470.0;1;;1
2019-09-20 00:00:00;470.0;1;;1
2019-09-21 00:00:00;470.0;1;;1
2019-09-22 00:00:00;470.0;1;;1
2019-09-23 00:00:00;470.0;1;;1
2019-09-24 00:00:00;470.0;1;;1
2019-09-25 00:00:00;470.0;1;;1
2019-09-26 00:00:00;470.0;1;;1
2019-09-27 00:00:00;475.0;1;;1
2019-09-28 00:00:00;473.0;1;;1
2019-09-29 00:00:00;477.0;1;;1
2019-09-30 00:00:00;481.0;1;;1
2019-10-01 00:00:00;486.0;1;;1
2019-10-02 00:00:00;489.0;1;;1
2019-10-03 00:00:00;485.0;1;;1
2019-10-04 00:00:00;483.0;1;;1
2019-10-05 00:00:00;490.0;1;;1
2019-10-06 00:00:00;480.0;1;;1
2019-10-07 00:00:00;478.0;1;;1
2019-10-08 00:00:00;478.0;1;;1
2019-10-09 00:00:00;478.0;1;;1
2019-10-10 00:00:00;476.0;1;;1
2019-10-11 00:00:00;476.0;1;;1
2019-10-12 00:00:00;479.0;1;;1
2019-10-13 00:00:00;484.0;1;;1
2019-10-14 00:00:00;484.0;1;;1
2019-10-15 00:00:00;483.0;1;;1
2019-10-16 00:00:00;497.0;1;;1
2019-10-17 00:00:00;502.0;1;;1
2019-10-18 00:00:00;503.0;1;;1
2019-10-19 00:00:00;492.0;1;;1
2019-10-20 00:00:00;488.0;1;;1
2019-10-21 00:00:00;503.0;1;;1
2019-10-22 00:00:00;504.0;1;;1
2019-10-23 00:00:00;497.0;1;;1
2019-10-24 00:00:00;489.0;1;;1
2019-10-25 00:00:00;483.0;1;;1
2019-10-26 00:00:00;481.0;1;;1
2019-10-27 00:00:00;480.0;1;;1
2019-10-28 00:00:00;477.0;1;;1
2019-10-29 00:00:00;476.0;1;;1
2019-10-30 00:00:00;480.0;1;;1
2019-10-31 00:00:00;479.0;1;;1
2019-11-01 00:00:00;479.0;1;;1
2019-11-02 00:00:00;483.0;1;;1
2019-11-03 00:00:00;486.0;1;;1
2019-11-04 00:00:00;486.0;1;;1
2019-11-05 00:00:00;492.0;1;;1
2019-11-06 00:00:00;496.0;1;;1
2019-11-07 00:00:00;491.0;1;;1
2019-11-08 00:00:00;495.0;1;;1
2019-11-09 00:00:00;487.0;1;;1
2019-11-10 00:00:00;484.0;1;;1
2019-11-11 00:00:00;483.0;1;;1
2019-11-12 00:00:00;483.0;1;;1
2019-11-13 00:00:00;482.0;1;;1
2019-11-14 00:00:00;482.0;1;;1
2019-11-15 00:00:00;481.0;1;;1
2019-11-16 00:00:00;487.0;1;;1
2019-11-17 00:00:00;496.0;1;;1
2019-11-18 00:00:00;496.0;1;;1
2019-11-19 00:00:00;498.0;1;;1
2019-11-20 00:00:00;494.0;1;;1
2019-11-21 00:00:00;490.0;1;;1
2019-11-22 00:00:00;490.0;1;;1
2019-11-23 00:00:00;491.0;1;;1
2019-11-24 00:00:00;489.0;1;;1
2019-11-25 00:00:00;488.0;1;;1
2019-11-26 00:00:00;486.0;1;;1
2019-11-27 00:00:00;485.0;1;;1
2019-11-28 00:00:00;485.0;1;;1
2019-11-29 00:00:00;488.0;1;;1
2019-11-30 00:00:00;489.0;1;;1
2019-12-01 00:00:00;489.0;1;;1
2019-12-02 00:00:00;487.0;1;;1
2019-12-03 00:00:00;484.0;1;;1
2019-12-04 00:00:00;482.0;1;;1
2019-12-05 00:00:00;481.0;1;;1
2019-12-06 00:00:00;484.0;1;;1
2019-12-07 00:00:00;490.0;1;;1
2019-12-08 00:00:00;495.0;1;;1
2019-12-09 00:00:00;502.0;1;;1
2019-12-10 00:00:00;495.0;1;;1
2019-12-11 00:00:00;491.0;1;;1
2019-12-12 00:00:00;499.0;1;;1
2019-12-13 00:00:00;503.0;1;;1
2019-12-14 00:00:00;498.0;1;;1
2019-12-15 00:00:00;495.0;1;;1
2019-12-16 00:00:00;495.0;1;;1
2019-12-17 00:00:00;494.0;1;;1
2019-12-18 00:00:00;495.0;1;;1
2019-12-19 00:00:00;500.0;1;;1
2019-12-20 00:00:00;498.0;1;;1
2019-12-21 00:00:00;495.0;1;;1
2019-12-22 00:00:00;493.0;1;;1
2019-12-23 00:00:00;496.0;1;;1
2019-12-24 00:00:00;502.0;1;;1
2019-12-25 00:00:00;509.0;1;;1
2019-12-26 00:00:00;504.0;1;;1
2019-12-27 00:00:00;501.0;1;;1
2019-12-28 00:00:00;502.0;1;;1
2019-12-29 00:00:00;500.0;1;;1
2019-12-30 00:00:00;494.0;1;;1
2019-12-31 00:00:00;491.0;1;;1
2020-01-01 00:00:00;488.0;1;;1
2020-01-02 00:00:00;488.0;1;;1
2020-01-03 00:00:00;490.0;1;;1
2020-01-04 00:00:00;501.0;1;;1
2020-01-05 00:00:00;508.0;1;;1
2020-01-06 00:00:00;503.0;1;;1
2020-01-07 00:00:00;501.0;1;;1
2020-01-08 00:00:00;497.0;1;;1
2020-01-09 00:00:00;496.0;1;;1
2020-01-10 00:00:00;509.0;1;;1
2020-01-11 00:00:00;508.0;1;;1
2020-01-12 00:00:00;504.0;1;;1
2020-01-13 00:00:00;504.0;1;;1
2020-01-14 00:00:00;504.0;1;;1
2020-01-15 00:00:00;507.0;1;;1
2020-01-16 00:00:00;499.0;1;;1
2020-01-17 00:00:00;495.0;1;;1
2020-01-18 00:00:00;492.0;1;;1
2020-01-19 00:00:00;490.0;1;;1
2020-01-20 00:00:00;488.0;1;;1
2020-01-21 00:00:00;484.0;1;;1
2020-01-22 00:00:00;485.0;1;;1
2020-01-23 00:00:00;485.0;1;;1
2020-01-24 00:00:00;484.0;1;;1
2020-01-25 00:00:00;484.0;1;;1
2020-01-26 00:00:00;482.0;1;;1
2020-01-27 00:00:00;483.0;1;;1
2020-01-28 00:00:00;485.0;1;;1
2020-01-29 00:00:00;523.0;1;;1
2020-01-30 00:00:00;563.0;1;;1
2020-01-31 00:00:00;560.0;1;;1
2020-02-01 00:00:00;542.0;1;;1
2020-02-02 00:00:00;534.0;1;;1
2020-02-03 00:00:00;528.0;1;;1
2020-02-04 00:00:00;525.0;1;;1
2020-02-05 00:00:00;513.0;1;;1
2020-02-06 00:00:00;505.0;1;;1
2020-02-07 00:00:00;505.0;1;;1
2020-02-08 00:00:00;497.0;1;;1
2020-02-09 00:00:00;496.0;1;;1
2020-02-10 00:00:00;534.0;1;;1
2020-02-11 00:00:00;557.0;1;;1
2020-02-12 00:00:00;597.0;1;;1
2020-02-13 00:00:00;604.0;1;;1
2020-02-14 00:00:00;587.0;1;;1
2020-02-15 00:00:00;562.0;1;;1
2020-02-16 00:00:00;547.0;1;;1
2020-02-17 00:00:00;537.0;1;;1
2020-02-18 00:00:00;528.0;1;;1
2020-02-19 00:00:00;523.0;1;;1
2020-02-20 00:00:00;522.0;1;;1
2020-02-21 00:00:00;532.0;1;;1
2020-02-22 00:00:00;536.0;1;;1
2020-02-23 00:00:00;538.0;1;;1
2020-02-24 00:00:00;555.0;1;;1
2020-02-25 00:00:00;580.0;1;;1
2020-02-26 00:00:00;573.0;1;;1
2020-02-27 00:00:00;549.0;1;;1
2020-02-28 00:00:00;533.0;1;;1
2020-02-29 00:00:00;541.0;1;;1
2020-03-01 00:00:00;545.0;1;;1
2020-03-02 00:00:00;531.0;1;;1
2020-03-03 00:00:00;523.0;1;;1
2020-03-04 00:00:00;520.0;1;;1
2020-03-05 00:00:00;513.0;1;;1
2020-03-06 00:00:00;510.0;1;;1
2020-03-07 00:00:00;506.0;1;;1
2020-03-08 00:00:00;503.0;1;;1
2020-03-09 00:00:00;502.0;1;;1
2020-03-10 00:00:00;508.0;1;;1
2020-03-11 00:00:00;547.0;1;;1
2020-03-12 00:00:00;531.0;1;;1
2020-03-13 00:00:00;524.0;1;;1
2020-03-14 00:00:00;516.0;1;;1
2020-03-15 00:00:00;507.0;1;;1
2020-03-16 00:00:00;505.0;1;;1
2020-03-17 00:00:00;497.0;1;;1
2020-03-18 00:00:00;497.0;1;;1
2020-03-19 00:00:00;494.0;1;;1
2020-03-20 00:00:00;492.0;1;;1
2020-03-21 00:00:00;489.0;1;;1
2020-03-22 00:00:00;488.0;1;;1
2020-03-23 00:00:00;488.0;1;;1
2020-03-24 00:00:00;486.0;1;;1
2020-03-25 00:00:00;485.0;1;;1
2020-03-26 00:00:00;485.0;1;;1
2020-03-27 00:00:00;484.0;1;;1
2020-03-28 00:00:00;483.0;1;;1
2020-03-29 00:00:00;484.0;1;;1
2020-03-30 00:00:00;485.0;1;;1
2020-03-31 00:00:00;484.0;1;;1
2020-04-01 00:00:00;484.0;1;;1
2020-04-02 00:00:00;488.0;1;;1
2020-04-03 00:00:00;485.0;1;;1
2020-04-04 00:00:00;482.0;1;;1
2020-04-05 00:00:00;480.0;1;;1
2020-04-06 00:00:00;481.0;1;;1
2020-04-07 00:00:00;480.0;1;;1
2020-04-08 00:00:00;480.0;1;;1
2020-04-09 00:00:00;480.0;1;;1
2020-04-10 00:00:00;479.0;1;;1
2020-04-11 00:00:00;481.0;1;;1
2020-04-12 00:00:00;479.0;1;;1
2020-04-13 00:00:00;476.0;1;;1
2020-04-14 00:00:00;479.0;1;;1
2020-04-15 00:00:00;478.0;1;;1
2020-04-16 00:00:00;475.0;1;;1
2020-04-17 00:00:00;477.0;1;;1
2020-04-18 00:00:00;474.0;1;;1
2020-04-19 00:00:00;473.0;1;;1
2020-04-20 00:00:00;477.0;1;;1
2020-04-21 00:00:00;473.0;1;;1
2020-04-22 00:00:00;473.0;1;;1
2020-04-23 00:00:00;473.0;1;;1
2020-04-24 00:00:00;472.0;1;;1
2020-04-25 00:00:00;472.0;1;;1
2020-04-26 00:00:00;472.0;1;;1
2020-04-27 00:00:00;472.0;1;;1
2020-04-28 00:00:00;472.0;1;;1
2020-04-29 00:00:00;474.0;1;;1
2020-04-30 00:00:00;477.0;1;;1
2020-05-01 00:00:00;481.0;1;;1
2020-05-02 00:00:00;482.0;1;;1
2020-05-03 00:00:00;478.0;1;;1
2020-05-04 00:00:00;478.0;1;;1
2020-05-05 00:00:00;475.0;1;;1
2020-05-06 00:00:00;475.0;1;;1
2020-05-07 00:00:00;474.0;1;;1
2020-05-08 00:00:00;473.0;1;;1
2020-05-09 00:00:00;475.0;1;;1
2020-05-10 00:00:00;472.0;1;;1
2020-05-11 00:00:00;472.0;1;;1
2020-05-12 00:00:00;472.0;1;;1
2020-05-13 00:00:00;475.0;1;;1
2020-05-14 00:00:00;473.0;1;;1
2020-05-15 00:00:00;473.0;1;;1
2020-05-16 00:00:00;476.0;1;;1
2020-05-17 00:00:00;476.0;1;;1
2020-05-18 00:00:00;475.0;1;;1
2020-05-19 00:00:00;475.0;1;;1
2020-05-20 00:00:00;473.0;1;;1
2020-05-21 00:00:00;474.0;1;;1
2020-05-22 00:00:00;473.0;1;;1
2020-05-23 00:00:00;474.0;1;;1
2020-05-24 00:00:00;476.0;1;;1
2020-05-25 00:00:00;473.0;1;;1
2020-05-26 00:00:00;473.0;1;;1
2020-05-27 00:00:00;473.0;1;;1
2020-05-28 00:00:00;472.0;1;;1
2020-05-29 00:00:00;472.0;1;;1
2020-05-30 00:00:00;472.0;1;;1
2020-05-31 00:00:00;472.0;1;;1
2020-06-01 00:00:00;476.0;1;;1
2020-06-02 00:00:00;475.0;1;;1
2020-06-03 00:00:00;475.0;1;;1
2020-06-04 00:00:00;476.0;1;;1
2020-06-05 00:00:00;476.0;1;;1
2020-06-06 00:00:00;475.0;1;;1
2020-06-07 00:00:00;474.0;1;;1
2020-06-08 00:00:00;473.0;1;;1
2020-06-09 00:00:00;473.0;1;;1
2020-06-10 00:00:00;473.0;1;;1
2020-06-11 00:00:00;474.0;1;;1
2020-06-12 00:00:00;476.0;1;;1
2020-06-13 00:00:00;480.0;1;;1
2020-06-14 00:00:00;481.0;1;;1
2020-06-15 00:00:00;475.0;1;;1
2020-06-16 00:00:00;475.0;1;;1
2020-06-17 00:00:00;475.0;1;;1
2020-06-18 00:00:00;474.0;1;;1
2020-06-19 00:00:00;472.0;1;;1
2020-06-20 00:00:00;472.0;1;;1
2020-06-21 00:00:00;471.0;1;;1
2020-06-22 00:00:00;471.0;1;;1
2020-06-23 00:00:00;471.0;1;;1
2020-06-24 00:00:00;470.0;1;;1
2020-06-25 00:00:00;470.0;1;;1
2020-06-26 00:00:00;471.0;1;;1
2020-06-27 00:00:00;471.0;1;;1
2020-06-28 00:00:00;473.0;1;;1
2020-06-29 00:00:00;473.0;1;;1
2020-06-30 00:00:00;472.0;1;;1
2020-07-01 00:00:00;473.0;1;;1
2020-07-02 00:00:00;479.0;1;;1
2020-07-03 00:00:00;478.0;1;;1
2020-07-04 00:00:00;478.0;1;;1
2020-07-05 00:00:00;479.0;1;;1
2020-07-06 00:00:00;478.0;1;;1
2020-07-07 00:00:00;477.0;1;;1
2020-07-08 00:00:00;478.0;1;;1
2020-07-09 00:00:00;480.0;1;;1
2020-07-10 00:00:00;486.0;1;;1
2020-07-11 00:00:00;481.0;1;;1
2020-07-12 00:00:00;477.0;1;;1
2020-07-13 00:00:00;476.0;1;;1
2020-07-14 00:00:00;481.0;1;;1
2020-07-15 00:00:00;477.0;1;;1
2020-07-16 00:00:00;474.0;1;;1
2020-07-17 00:00:00;474.0;1;;1
2020-07-18 00:00:00;473.0;1;;1
2020-07-19 00:00:00;472.0;1;;1
2020-07-20 00:00:00;472.0;1;;1
2020-07-21 00:00:00;471.0;1;;1
2020-07-22 00:00:00;471.0;1;;1
2020-07-23 00:00:00;471.0;1;;1
2020-07-24 00:00:00;471.0;1;;1
2020-07-25 00:00:00;473.0;1;;1
2020-07-26 00:00:00;475.0;1;;1
2020-07-27 00:00:00;474.0;1;;1
2020-07-28 00:00:00;472.0;1;;1
2020-07-29 00:00:00;471.0;1;;1
2020-07-30 00:00:00;471.0;1;;1
2020-07-31 00:00:00;471.0;1;;1
2020-08-01 00:00:00;471.0;1;;1
2020-08-02 00:00:00;471.0;1;;1
2020-08-03 00:00:00;473.0;1;;1
2020-08-04 00:00:00;472.0;1;;1
2020-08-05 00:00:00;471.0;1;;1
2020-08-06 00:00:00;471.0;1;;1
2020-08-07 00:00:00;471.0;1;;1
2020-08-08 00:00:00;470.0;1;;1
2020-08-09 00:00:00;469.0;1;;1
2020-08-10 00:00:00;468.0;1;;1
2020-08-11 00:00:00;468.0;1;;1
2020-08-12 00:00:00;467.0;1;;1
2020-08-13 00:00:00;468.0;1;;1
2020-08-14 00:00:00;468.0;1;;1
2020-08-15 00:00:00;468.0;1;;1
2020-08-16 00:00:00;468.0;1;;1
2020-08-17 00:00:00;467.0;1;;1
2020-08-18 00:00:00;468.0;1;;1
2020-08-19 00:00:00;468.0;1;;1
2020-08-20 00:00:00;467.0;1;;1
2020-08-21 00:00:00;468.0;1;;1
2020-08-22 00:00:00;468.0;1;;1
2020-08-23 00:00:00;470.0;1;;1
2020-08-24 00:00:00;473.0;1;;1
2020-08-25 00:00:00;472.0;1;;1
2020-08-26 00:00:00;474.0;1;;1
2020-08-27 00:00:00;479.0;1;;1
2020-08-28 00:00:00;475.0;1;;1
2020-08-29 00:00:00;474.0;1;;1
2020-08-30 00:00:00;474.0;1;;1
2020-08-31 00:00:00;473.0;1;;1
2020-09-01 00:00:00;473.0;1;;1
2020-09-02 00:00:00;472.0;1;;1
2020-09-03 00:00:00;472.0;1;;1
2020-09-04 00:00:00;474.0;1;;1
2020-09-05 00:00:00;474.0;1;;1
2020-09-06 00:00:00;477.0;1;;1
2020-09-07 00:00:00;473.0;1;;1
2020-09-08 00:00:00;472.0;1;;1
2020-09-09 00:00:00;472.0;1;;1
2020-09-10 00:00:00;472.0;1;;1
2020-09-11 00:00:00;471.0;1;;1
2020-09-12 00:00:00;471.0;1;;1
2020-09-13 00:00:00;471.0;1;;1
2020-09-14 00:00:00;471.0;1;;1
2020-09-15 00:00:00;470.0;1;;1
2020-09-16 00:00:00;470.0;1;;1
2020-09-17 00:00:00;470.0;1;;1
2020-09-18 00:00:00;470.0;1;;1
2020-09-19 00:00:00;470.0;1;;1
2020-09-20 00:00:00;470.0;1;;1
2020-09-21 00:00:00;470.0;1;;1
2020-09-22 00:00:00;470.0;1;;1
2020-09-23 00:00:00;470.0;1;;1
2020-09-24 00:00:00;471.0;1;;1
2020-09-25 00:00:00;472.0;1;;1
2020-09-26 00:00:00;473.0;1;;1
2020-09-27 00:00:00;475.0;1;;1
2020-09-28 00:00:00;474.0;1;;1
2020-09-29 00:00:00;473.0;1;;1
2020-09-30 00:00:00;473.0;1;;1
2020-10-01 00:00:00;473.0;1;;1
2020-10-02 00:00:00;473.0;1;;1
2020-10-03 00:00:00;473.0;1;;1
2020-10-04 00:00:00;474.0;1;;1
2020-10-05 00:00:00;473.0;1;;1
2020-10-06 00:00:00;473.0;1;;1
2020-10-07 00:00:00;474.0;1;;1
2020-10-08 00:00:00;479.0;1;;1
2020-10-09 00:00:00;481.0;1;;1
2020-10-10 00:00:00;477.0;1;;1
2020-10-11 00:00:00;478.0;1;;1
2020-10-12 00:00:00;478.0;1;;1
2020-10-13 00:00:00;474.0;1;;1
2020-10-14 00:00:00;474.0;1;;1
2020-10-15 00:00:00;474.0;1;;1
2020-10-16 00:00:00;474.0;1;;1
2020-10-17 00:00:00;474.0;1;;1
2020-10-18 00:00:00;474.0;1;;1
2020-10-19 00:00:00;474.0;1;;1
2020-10-20 00:00:00;474.0;1;;1
2020-10-21 00:00:00;475.0;1;;1
2020-10-22 00:00:00;475.0;1;;1
2020-10-23 00:00:00;476.0;1;;1
2020-10-24 00:00:00;476.0;1;;1
2020-10-25 00:00:00;477.0;1;;1
2020-10-26 00:00:00;479.0;1;;1
2020-10-27 00:00:00;477.0;1;;1
2020-10-28 00:00:00;478.0;1;;1
2020-10-29 00:00:00;479.0;1;;1
2020-10-30 00:00:00;483.0;1;;1
2020-10-31 00:00:00;488.0;1;;1
2020-11-01 00:00:00;482.0;1;;1
2020-11-02 00:00:00;480.0;1;;1
2020-11-03 00:00:00;479.0;1;;1
2020-11-04 00:00:00;478.0;1;;1
2020-11-05 00:00:00;477.0;1;;1
2020-11-06 00:00:00;477.0;1;;1
2020-11-07 00:00:00;477.0;1;;1
2020-11-08 00:00:00;477.0;1;;1
2020-11-09 00:00:00;478.0;1;;1
2020-11-10 00:00:00;478.0;1;;1
2020-11-11 00:00:00;478.0;1;;1
2020-11-12 00:00:00;479.0;1;;1
2020-11-13 00:00:00;481.0;1;;1
2020-11-14 00:00:00;483.0;1;;1
2020-11-15 00:00:00;483.0;1;;1
2020-11-16 00:00:00;481.0;1;;1
2020-11-17 00:00:00;481.0;1;;1
2020-11-18 00:00:00;481.0;1;;1
2020-11-19 00:00:00;482.0;1;;1
2020-11-20 00:00:00;482.0;1;;1
2020-11-21 00:00:00;481.0;1;;1
2020-11-22 00:00:00;482.0;1;;1
2020-11-23 00:00:00;482.0;1;;1
2020-11-24 00:00:00;481.0;1;;1
2020-11-25 00:00:00;481.0;1;;1
2020-11-26 00:00:00;481.0;1;;1
2020-11-27 00:00:00;481.0;1;;1
2020-11-28 00:00:00;483.0;1;;1
2020-11-29 00:00:00;483.0;1;;1
2020-11-30 00:00:00;480.0;1;;1
2020-12-01 00:00:00;481.0;1;;1
2020-12-02 00:00:00;480.0;1;;1
2020-12-03 00:00:00;480.0;1;;1
2020-12-04 00:00:00;481.0;1;;1
2020-12-05 00:00:00;484.0;1;;1
2020-12-06 00:00:00;481.0;1;;1
2020-12-07 00:00:00;481.0;1;;1
2020-12-08 00:00:00;481.0;1;;1
2020-12-09 00:00:00;480.0;1;;1
2020-12-10 00:00:00;480.0;1;;1
2020-12-11 00:00:00;480.0;1;;1
2020-12-12 00:00:00;480.0;1;;1
2020-12-13 00:00:00;481.0;1;;1
2020-12-14 00:00:00;481.0;1;;1
2020-12-15 00:00:00;481.0;1;;1
2020-12-16 00:00:00;480.0;1;;1
2020-12-17 00:00:00;481.0;1;;1
2020-12-18 00:00:00;481.0;1;;1
2020-12-19 00:00:00;480.0;1;;1
2020-12-20 00:00:00;480.0;1;;1
2020-12-21 00:00:00;480.0;1;;1
2020-12-22 00:00:00;485.0;1;;1
2020-12-23 00:00:00;489.0;1;;1
2020-12-24 00:00:00;503.0;1;;1
2020-12-25 00:00:00;501.0;1;;1
2020-12-26 00:00:00;488.0;1;;1
2020-12-27 00:00:00;482.0;1;;1
2020-12-28 00:00:00;488.0;1;;1
2020-12-29 00:00:00;487.0;1;;1
2020-12-30 00:00:00;490.0;1;;1
2020-12-31 00:00:00;489.0;1;;1
2021-01-01 00:00:00;484.0;1;;1
2021-01-02 00:00:00;484.0;1;;1
2021-01-03 00:00:00;480.0;1;;1
2021-01-04 00:00:00;482.0;1;;1
2021-01-05 00:00:00;489.0;1;;1
2021-01-06 00:00:00;490.0;1;;1
2021-01-07 00:00:00;496.0;1;;1
2021-01-08 00:00:00;501.0;1;;1
2021-01-09 00:00:00;503.0;1;;1
2021-01-10 00:00:00;499.0;1;;1
2021-01-11 00:00:00;497.0;1;;1
2021-01-12 00:00:00;509.0;1;;1
2021-01-13 00:00:00;517.0;1;;1
2021-01-14 00:00:00;517.0;1;;1
2021-01-15 00:00:00;503.0;1;;1
2021-01-16 00:00:00;495.0;1;;1
2021-01-17 00:00:00;495.0;1;;1
2021-01-18 00:00:00;489.0;1;;1
2021-01-19 00:00:00;501.0;1;;1
2021-01-20 00:00:00;527.0;1;;1
2021-01-21 00:00:00;519.0;1;;1
2021-01-22 00:00:00;511.0;1;;1
2021-01-23 00:00:00;507.0;1;;1
2021-01-24 00:00:00;498.0;1;;1
2021-01-25 00:00:00;497.0;1;;1
2021-01-26 00:00:00;492.0;1;;1
2021-01-27 00:00:00;493.0;1;;1
2021-01-28 00:00:00;490.0;1;;1
2021-01-29 00:00:00;489.0;1;;1
2021-01-30 00:00:00;488.0;1;;1
2021-01-31 00:00:00;486.0;1;;1
2021-02-01 00:00:00;484.0;1;;1
2021-02-02 00:00:00;483.0;1;;1
2021-02-03 00:00:00;485.0;1;;1
2021-02-04 00:00:00;492.0;1;;1
2021-02-05 00:00:00;493.0;1;;1
2021-02-06 00:00:00;493.0;1;;1
2021-02-07 00:00:00;488.0;1;;1
2021-02-08 00:00:00;487.0;1;;1
2021-02-09 00:00:00;486.0;1;;1
2021-02-10 00:00:00;485.0;1;;1
2021-02-11 00:00:00;482.0;1;;1
2021-02-12 00:00:00;482.0;1;;1
2021-02-13 00:00:00;480.0;1;;1
2021-02-14 00:00:00;479.0;1;;1
2021-02-15 00:00:00;479.0;1;;1
2021-02-16 00:00:00;480.0;1;;1
2021-02-17 00:00:00;491.0;1;;1
2021-02-18 00:00:00;515.0;1;;1
2021-02-19 00:00:00;519.0;1;;1
2021-02-20 00:00:00;513.0;1;;1
2021-02-21 00:00:00;499.0;1;;1
2021-02-22 00:00:00;497.0;1;;1
2021-02-23 00:00:00;492.0;1;;1
2021-02-24 00:00:00;490.0;1;;1
2021-02-25 00:00:00;489.0;1;;1
2021-02-26 00:00:00;486.0;1;;1
2021-02-27 00:00:00;486.0;1;;1
2021-02-28 00:00:00;483.0;1;;1
2021-03-01 00:00:00;484.0;1;;1
2021-03-02 00:00:00;483.0;1;;1
2021-03-03 00:00:00;482.0;1;;1
2021-03-04 00:00:00;482.0;1;;1
2021-03-05 00:00:00;480.0;1;;1
2021-03-06 00:00:00;478.0;1;;1
2021-03-07 00:00:00;481.0;1;;1
2021-03-08 00:00:00;479.0;1;;1
2021-03-09 00:00:00;480.0;1;;1
2021-03-10 00:00:00;480.0;1;;1
2021-03-11 00:00:00;503.0;1;;1
2021-03-12 00:00:00;512.0;1;;1
2021-03-13 00:00:00;518.0;1;;1
2021-03-14 00:00:00;545.0;1;;1
2021-03-15 00:00:00;532.0;1;;1
2021-03-16 00:00:00;519.0;1;;1
2021-03-17 00:00:00;507.0;1;;1
2021-03-18 00:00:00;500.0;1;;1
2021-03-19 00:00:00;499.0;1;;1
2021-03-20 00:00:00;495.0;1;;1
2021-03-21 00:00:00;487.0;1;;1
2021-03-22 00:00:00;491.0;1;;1
2021-03-23 00:00:00;484.0;1;;1
2021-03-24 00:00:00;482.0;1;;1
2021-03-25 00:00:00;485.0;1;;1
2021-03-26 00:00:00;484.0;1;;1
2021-03-27 00:00:00;485.0;1;;1
2021-03-28 00:00:00;481.0;1;;1
2021-03-29 00:00:00;484.0;1;;1
2021-03-30 00:00:00;486.0;1;;1
2021-03-31 00:00:00;480.0;1;;1
2021-04-01 00:00:00;477.0;1;;1
2021-04-02 00:00:00;476.0;1;;1
2021-04-03 00:00:00;478.0;1;;1
2021-04-04 00:00:00;479.0;1;;1
2021-04-05 00:00:00;480.0;1;;1
2021-04-06 00:00:00;480.0;1;;1
2021-04-07 00:00:00;480.0;1;;1
2021-04-08 00:00:00;480.0;1;;1
2021-04-09 00:00:00;479.0;1;;1
2021-04-10 00:00:00;482.0;1;;1
2021-04-11 00:00:00;484.0;1;;1
2021-04-12 00:00:00;482.0;1;;1
2021-04-13 00:00:00;486.0;1;;1
2021-04-14 00:00:00;483.0;1;;1
2021-04-15 00:00:00;479.0;1;;1
2021-04-16 00:00:00;478.0;1;;1
2021-04-17 00:00:00;477.0;1;;1
2021-04-18 00:00:00;477.0;1;;1
2021-04-19 00:00:00;478.0;1;;1
2021-04-20 00:00:00;478.0;1;;1
2021-04-21 00:00:00;477.0;1;;1
2021-04-22 00:00:00;476.0;1;;1
2021-04-23 00:00:00;475.0;1;;1
2021-04-24 00:00:00;475.0;1;;1
2021-04-25 00:00:00;475.0;1;;1
2021-04-26 00:00:00;475.0;1;;1
2021-04-27 00:00:00;472.0;1;;1
2021-04-28 00:00:00;475.0;1;;1
2021-04-29 00:00:00;477.0;1;;1
2021-04-30 00:00:00;475.0;1;;1
2021-05-01 00:00:00;473.0;1;;1
2021-05-02 00:00:00;476.0;1;;1
2021-05-03 00:00:00;477.0;1;;1
2021-05-04 00:00:00;477.0;1;;1
2021-05-05 00:00:00;478.0;1;;1
2021-05-06 00:00:00;481.0;1;;1
2021-05-07 00:00:00;479.0;1;;1
2021-05-08 00:00:00;479.0;1;;1
2021-05-09 00:00:00;480.0;1;;1
2021-05-10 00:00:00;479.0;1;;1
2021-05-11 00:00:00;484.0;1;;1
2021-05-12 00:00:00;482.0;1;;1
2021-05-13 00:00:00;483.0;1;;1
2021-05-14 00:00:00;484.0;1;;1
2021-05-15 00:00:00;482.0;1;;1
2021-05-16 00:00:00;485.0;1;;1
2021-05-17 00:00:00;486.0;1;;1
2021-05-18 00:00:00;485.0;1;;1
2021-05-19 00:00:00;482.0;1;;1
2021-05-20 00:00:00;480.0;1;;1
2021-05-21 00:00:00;479.0;1;;1
2021-05-22 00:00:00;480.0;1;;1
2021-05-23 00:00:00;479.0;1;;1
2021-05-24 00:00:00;476.0;1;;1
2021-05-25 00:00:00;477.0;1;;1
2021-05-26 00:00:00;478.0;1;;1
2021-05-27 00:00:00;479.0;1;;1
2021-05-28 00:00:00;477.0;1;;1
2021-05-29 00:00:00;476.0;1;;1
2021-05-30 00:00:00;476.0;1;;1
2021-05-31 00:00:00;476.0;1;;1
2021-06-01 00:00:00;475.0;1;;1
2021-06-02 00:00:00;474.0;1;;1
2021-06-03 00:00:00;474.0;1;;1
2021-06-04 00:00:00;474.0;1;;1
2021-06-05 00:00:00;474.0;1;;1
2021-06-06 00:00:00;471.0;1;;1
2021-06-07 00:00:00;471.0;1;;1
2021-06-08 00:00:00;468.0;1;;1
2021-06-09 00:00:00;464.0;1;;1
2021-06-10 00:00:00;464.0;1;;1
2021-06-11 00:00:00;464.0;1;;1
2021-06-12 00:00:00;464.0;1;;1
2021-06-13 00:00:00;465.0;1;;1
2021-06-14 00:00:00;464.0;1;;1
2021-06-15 00:00:00;463.0;1;;1
2021-06-16 00:00:00;462.0;1;;1
2021-06-17 00:00:00;461.0;1;;1
2021-06-18 00:00:00;461.0;1;;1
2021-06-19 00:00:00;462.0;1;;1
2021-06-20 00:00:00;465.0;1;;1
2021-06-21 00:00:00;477.0;1;;1
2021-06-22 00:00:00;476.0;1;;1
2021-06-23 00:00:00;465.0;1;;1
2021-06-24 00:00:00;464.0;1;;1
2021-06-25 00:00:00;464.0;1;;1
2021-06-26 00:00:00;471.0;1;;1
2021-06-27 00:00:00;470.0;1;;1
2021-06-28 00:00:00;466.0;1;;1
2021-06-29 00:00:00;472.0;1;;1
2021-06-30 00:00:00;495.0;1;;1
2021-07-01 00:00:00;535.0;1;;1
2021-07-02 00:00:00;523.0;1;;1
2021-07-03 00:00:00;507.0;1;;1
2021-07-04 00:00:00;489.0;1;;1
2021-07-05 00:00:00;485.0;1;;1
2021-07-06 00:00:00;479.0;1;;1
2021-07-07 00:00:00;476.0;1;;1
2021-07-08 00:00:00;477.0;1;;1
2021-07-09 00:00:00;482.0;1;;1
2021-07-10 00:00:00;486.0;1;;1
2021-07-11 00:00:00;492.0;1;;1
2021-07-12 00:00:00;480.0;1;;1
2021-07-13 00:00:00;472.0;1;;1
2021-07-14 00:00:00;473.0;1;;1
2021-07-15 00:00:00;471.0;1;;1
2021-07-16 00:00:00;470.0;1;;1
2021-07-17 00:00:00;471.0;1;;1
2021-07-18 00:00:00;469.0;1;;1
2021-07-19 00:00:00;467.0;1;;1
2021-07-20 00:00:00;466.0;1;;1
2021-07-21 00:00:00;468.0;1;;1
2021-07-22 00:00:00;465.0;1;;1
2021-07-23 00:00:00;463.0;1;;1
2021-07-24 00:00:00;463.0;1;;1
2021-07-25 00:00:00;464.0;1;;1
2021-07-26 00:00:00;464.0;1;;1
2021-07-27 00:00:00;465.0;1;;1
2021-07-28 00:00:00;463.0;1;;1
2021-07-29 00:00:00;464.0;1;;1
2021-07-30 00:00:00;463.0;1;;1
2021-07-31 00:00:00;464.0;1;;1
2021-08-01 00:00:00;476.0;1;;1
2021-08-02 00:00:00;469.0;1;;1
2021-08-03 00:00:00;466.0;1;;1
2021-08-04 00:00:00;465.0;1;;1
2021-08-05 00:00:00;469.0;1;;1
2021-08-06 00:00:00;469.0;1;;1
2021-08-07 00:00:00;472.0;1;;1
2021-08-08 00:00:00;479.0;1;;1
2021-08-09 00:00:00;474.0;1;;1
2021-08-10 00:00:00;470.0;1;;1
2021-08-11 00:00:00;474.0;1;;1
2021-08-12 00:00:00;467.0;1;;1
2021-08-13 00:00:00;465.0;1;;1
2021-08-14 00:00:00;463.0;1;;1
2021-08-15 00:00:00;465.0;1;;1
2021-08-16 00:00:00;473.0;1;;1
2021-08-17 00:00:00;476.0;1;;1
2021-08-18 00:00:00;477.0;1;;1